Location: PSU-Greenbush Astrophysical Observatory
(37.5140°N, 94.9880°W)
Time: 03:26:59
(UTC-05:00)

BEESAT - Pass Details

Date: 29 February 2020
Orbit: 700 x 709 km, 98.6° (Epoch: 04 April)

Event Time Altitude Azimuth Distance (km) Brightness Sun altitude
Rises 18:27:16 0° 8° (N) 3,092 ? -3.6°
Reaches altitude 10° 18:29:33 10° 5° (N) 2,170 ? -4.0°
Maximum altitude 18:34:12 58° 287° (WNW) 817 ? -4.9°
Drops below altitude 10° 18:38:50 10° 209° (SSW) 2,157 ? -5.8°
Sets 18:41:06 0° 205° (SSW) 3,072 ? -6.3°
